Regional Weather Roundup
Issued by NWS Grand Forks, ND

Home | Current Version | Previous Version | Text Only | Print | Product List | Glossary Off
Versions: 1 2 3 4 5 6 7 8 9 10 11 12 13 14 15 16 17 18 19 20 21 22 23 24 25 26 27 28 29 30 31 32 33 34 35 36 37 38 39 40 41 42 43 44 45 46 47 48 49 50

000
ASUS43 KFGF 202031
RWRFGF
PRAIRIE TO PINES  WEATHER ROUNDUP
NATIONAL WEATHER SERVICE EASTERN NORTH DAKOTA/GRAND FORKS ND
300 PM CDT SUN AUG 20 2017

 **SATELLITE DATA USED TO AUGMENT SKY COVER AT AUTOMATED STATIONS**
 *****  WEATHER ACROSS EASTERN NORTH DAKOTA  *****

CITY           SKY/WX    TMP DP  RH WIND       PRES   REMARKS
GRAND FORKS    FAIR      78  48  34 NW17      29.96S
GRAND FRKS AFB FAIR      78  46  31 N10       29.98S
DEVILS LAKE    NOT AVBL
FARGO          FAIR      73  48  41 NW8       29.99R
WAHPETON ARPT  FAIR      73  52  46 NW6       30.00F
$$

 ***** WEATHER ACROSS CENTRAL AND WESTERN NORTH DAKOTA  *****

CITY           SKY/WX    TMP DP  RH WIND       PRES   REMARKS
BISMARCK       FAIR      75  45  34 CALM      30.06F
MINOT          FAIR      76  40  27 CALM      30.03F
JAMESTOWN      FAIR      69  51  52 N7        30.03S
MINOT AFB      FAIR      74  38  27 NW8       30.01F
GARRISON         N/A     71  47  42 S8        30.04F
WILLISTON      FAIR      75  30  19 CALM      30.04F
DICKINSON      PTSUNNY   68  41  37 SE8       30.06S
HETTINGER      FAIR      72  45  37 E8        30.08F
$$

 *****  OTHER AIRPORT OBSERVATIONS IN OUR AREA  *****

CITY           SKY/WX    TMP DP  RH WIND       PRES   REMARKS
WALHALLA       FAIR      75  72  88 NW10G17   29.97S
GRAFTON AIRPOR FAIR      75  46  35 NW10G17   29.99S
VALLEY CITY AR   N/A     73  46  38 NW13      30.03S
CANDO          FAIR      75  45  33 W10       30.02F
CAVALIER APRT  FAIR      75  46  35 W12       29.96S
GWINNER        CLEAR     72  52  49 NW9       30.04R
SHEYENNE NWR     N/A     71  52  50 NW3       29.95
ROLLA          FAIR      72  41  33 W9G16     30.03S
 ***** THE ABOVE OBSERVATIONS ARE NON NWS ARE NOT QUALITY
       CONTROLLED AND MAY MIS-REPORT RAIN FOR SNOW...
$$

  *****  WEATHER ACROSS NORTHERN MINNESOTA  *****

CITY           SKY/WX    TMP DP  RH WIND       PRES   REMARKS
FLAG ISLAND    HAZE      75  45  33 NW9       29.90S VSB 3/4
WARROAD        FAIR      73  54  49 W8G18     29.93S
ROSEAU         FAIR      79  46  31 NW13      29.93S
HALLOCK        FAIR      79  37  22 NW15G31   29.94F
THF RVR FALLS  FAIR      75  43  31 NW16      29.97S
BAUDETTE       FAIR      76  49  38 NW16G23   29.91F
WASKISH        CLOUDY    73  52  46 W10       29.93S
CROOKSTON      FAIR      77  43  29 N12G20    29.97S
STEPHEN NDAWN    N/A     77  45  31 NW8         N/A
GREENBUSH NDAW   N/A     75  46  35 NW12        N/A
$$
  *****  WEATHER ACROSS CENTRAL AND WEST MINNESOTA  *****

CITY           SKY/WX    TMP DP  RH WIND       PRES   REMARKS
FOSSTON        FAIR      77  43  29 W13       29.98R
BEMIDJI        FAIR      75  50  41 NW9       29.97R
PARK RAPIDS    FAIR      74  57  55 NW8       29.98R
ELBOW LAKE     FAIR      71  59  65 NW5       30.01S HAZE
WADENA         FAIR      73  55  53 CALM      29.98F
DETROIT LAKES  FAIR      72  52  49 NW10      30.01S
MOORHEAD       FAIR      72  52  49 NW7       30.00S
FERGUS FALLS   FAIR      72  57  60 NW3       29.99S
MORRIS MN      FAIR      72  61  68 W8        30.01S
STAPLES        FAIR      73  55  53 NW5       29.99S
$$
  *****  WEATHER ELSEWHERE ACROSS MINNESOTA  *****

CITY           SKY/WX    TMP DP  RH WIND       PRES   REMARKS
DULUTH         FAIR      78  59  51 NW13G21   29.92R
INTRNTL FALLS  FAIR      75  49  39 NW14G21   29.90R
ELY            FAIR      72  55  56 NW10      29.89S
CLOQUET        FAIR      75  55  50 W9        29.92F HAZE
WHEATON        FAIR      73  54  49 NW3       30.02F
BRAINERD       FAIR      73  55  53 N7        29.98R
HIBBING        FAIR      73  56  54 W9        29.92S
ALEXANDRIA     NOT AVBL
SAINT CLOUD    FAIR      76  65  68 NW7       29.96R
MINNEAPOLIS    FAIR      84  68  58 VRB3      29.92F
$$

  *****  WEATHER ACROSS SOUTH DAKOTA  *****

CITY           SKY/WX    TMP DP  RH WIND       PRES   REMARKS
SIOUX FALLS    FAIR      84  72  67 NE9       29.96F
BROOKINGS      FAIR      75  60  59 NE8       30.00S
WATERTOWN      FAIR      68  58  70 NE9       30.02S
HURON          FAIR      79  59  50 N15       29.99S
SISSETON         N/A     73  57  57 N3        30.01S
ABERDEEN       FAIR      71  53  52 VRB6      30.04R
MITCHELL       FAIR      83  67  58 E12       29.95F
PIERRE         FAIR      79  54  41 NE13      30.02F
MOBRIDGE       FAIR      75  51  43 E12       30.02F
RAPID CITY     FAIR      77  49  37 CALM      30.06F
$$

  *****  SOME WEATHER IN NEARBY STATES *****

CITY           SKY/WX    TMP DP  RH WIND       PRES   REMARKS
GLASGOW MT     FAIR      78  34  20 S16G23    29.97F
GREAT FALLS MT FAIR      77  26  15 NW9G23    30.02F
CHEYENNE WY    FAIR      80  43  26 NE12      30.17S
SCOTTSBLUFF NE FAIR      85  55  35 E9        30.04F
OMAHA NE       PTSUNNY   79  66  64 SE8       29.96S
DES MOINES IA  FAIR      78  68  71 W12       29.95R
DAVENPORT IA   PTSUNNY   74  68  81 SE6       29.99F
CHICAGO IL     PTSUNNY   88  62  41 W8        30.00S
EAU CLAIRE WI  FAIR      84  64  50 SW17      29.92F
LA CROSSE WI   FAIR      88  64  44 SW8       29.94F
$$

  *****  SOME NATIONAL WEATHER *****

CITY           SKY/WX    TMP DP  RH WIND       PRES   REMARKS
LA GUARDIA NY  FAIR      83  60  45 NW10      30.05F
RALEIGH NC     FAIR      94  67  41 E7        30.09F HX  97
ATLANTA GA     PTSUNNY   90  65  43 VRB3      30.08F HX  92
NEW ORLEANS LA FAIR      93  71  48 E8        30.01F HX 100
OKLAHOMA CITY  PTSUNNY   85  70  60 SW6       29.99F
ALBUQUERQUE NM LGT RAIN  73  54  51 S17       30.19R
SALT LAKE CITY FAIR      92  37  14 W7        30.01F
LOS ANGELES CA FAIR      74  61  63 W14       29.93F
BOISE ID       FAIR      81  40  23 NW12      30.03F
SEATTLE WA     PTSUNNY   70  52  52 VRB6      30.15F
$$

*** WEATHER ACROSS MANITOBA...SASKATCHEWAN AND ONTARIO ***
                ***ONTARIO***

CITY           SKY/WX    TMP DP  RH WIND       PRES   REMARKS
GERALDTON      PTSUNNY   75  63  64 SW18G29   29.72F THUNDER
THUNDER BAY    PTSUNNY   75  64  69 W15G23    29.78R
SIOUX LOOKOUT  MOSUNNY   75  48  38 NW13G23   29.83R
TORONTO        MOSUNNY   84  61  45 W15G21    30.04F
BIG TROUT LK   SUNNY     70  57  64 W14       29.60S
PICKLE LAKE    MOSUNNY   75  46  35 W14G26    29.73S
DRYDEN         SUNNY     75  46  35 NW12G24   29.86R
KENORA         PTSUNNY   73  46  38 NW13G22   29.90S
$$
                *** MANITOBA***

CITY           SKY/WX    TMP DP  RH WIND       PRES   REMARKS
BRANDON        MOSUNNY   75  43  31 W14G21    29.98F
DAUPHIN        SUNNY     75  43  31 W18G25    29.92F
ISLAND LAKE    PTSUNNY   68  48  49 W22       29.70R
PILOT MOUND      N/A     72  41  33 NW12        N/A
THE PAS        PTSUNNY   73  43  33 W14G22    29.77S
THOMPSON       LGT RAIN  63  50  63 W17G24    29.63S
WINNIPEG       MOSUNNY   75  41  29 NW12G24   29.93S
LYNN LAKE      PTSUNNY   63  48  59 MISG      29.63S
CHURCHILL      LGT RAIN  55  55 100 E8        29.51F FOG
GILLAM         MOSUNNY   66  54  63 NW20G26   29.51S
$$
                ***SASKATCHEWAN***

CITY           SKY/WX    TMP DP  RH WIND       PRES   REMARKS
ESTEVAN        CLOUDY    72  37  28 W5G21     30.02F
KINDERSLEY     PTSUNNY   68  36  30 VRB2      29.94F
LLOYDMINSTER   PTSUNNY   63  45  51 W17G24    29.92F
PRINCE ALBERT  PTSUNNY   66  43  42 W18G25    29.89S
REGINA         PTSUNNY   68  36  30 W6        30.00F
YORKTON        SUNNY     72  41  33 W20G26    29.96S
N. BATTLEFORD  CLOUDY    61  45  55 W9        29.96S
LA RONGE       PTSUNNY   70  45  40 SW15G29   29.75F
SASKATOON      CLOUDY    66  46  48 W9        29.95F
SWIFT CURRENT  MOSUNNY   73  30  20 S9G20     29.94F
$$
NOTE: THESE ARE AUTOMATED STATIONS WITH LIMITED QUALITY CONTROL
      "FAIR" INDICATES FEW OR NO CLOUDS BELOW 12,000 FEET WITH NO
      SIGNIFICANT WEATHER AND/OR OBSTRUCTIONS TO VISIBILITY.
      SKY/WX - SKY CONDITION AND SIGNIFICANT WEATHER.
      TMP - AIR TEMPERATURE.    DP   - DEWPOINT TEMPERATURE.
      RH  - RELATIVE HUMIDITY.  PRES - PRESSURE.
      HX  - HEAT INDEX.         WCI  - WIND CHILL INDEX.
$




USA.gov is the U.S. government's official web portal to all federal, state and local government web resources and services.